iso_date,epoch_date,Year,Hour,Min,DOY,POS_DOY,Lat,Lon,BP,Ts,Ta,has_bp,has_ts,has_ta,BuoyID,Buoy_Type,Buoy_Owner,Logistics,Hemisphere
2020-02-03T00:00:00Z,1580688000,2020,0,0,34.0,34.0,-76.327,-158.225,-999.00,-0.75,-999.0,no,yes,no,300234068240710,SVPGHI,AOML,LAURA_BASSI,South
2020-02-03T01:00:02Z,1580691603,2020,1,0,34.0417,34.0417,-76.328,-158.235,-999.00,-0.76,-999.0,no,yes,no,300234068240710,SVPGHI,AOML,LAURA_BASSI,South
2020-02-03T01:59:57Z,1580695197,2020,2,0,34.0833,34.0833,-76.328,-158.254,-999.00,-0.75,-999.0,no,yes,no,300234068240710,SVPGHI,AOML,LAURA_BASSI,South
2020-02-03T03:04:01Z,1580699042,2020,3,4,34.1278,34.1278,-76.327,-158.281,-999.00,-0.75,-999.0,no,yes,no,300234068240710,SVPGHI,AOML,LAURA_BASSI,South
2020-02-03T04:00:02Z,1580702403,2020,4,0,34.1667,34.1667,-76.329,-158.306,-999.00,-0.75,-999.0,no,yes,no,300234068240710,SVPGHI,AOML,LAURA_BASSI,South
2020-02-03T04:59:57Z,1580705997,2020,5,0,34.2083,34.2083,-76.331,-158.338,-999.00,-0.75,-999.0,no,yes,no,300234068240710,SVPGHI,AOML,LAURA_BASSI,South
2020-02-03T06:00:00Z,1580709600,2020,6,0,34.25,34.25,-76.334,-158.367,-999.00,-0.74,-999.0,no,yes,no,300234068240710,SVPGHI,AOML,LAURA_BASSI,South
2020-02-03T07:00:02Z,1580713203,2020,7,0,34.2917,34.2917,-76.336,-158.397,-999.00,-0.74,-999.0,no,yes,no,300234068240710,SVPGHI,AOML,LAURA_BASSI,South
2020-02-03T07:59:57Z,1580716797,2020,8,0,34.3333,34.3333,-76.339,-158.428,-999.00,-0.74,-999.0,no,yes,no,300234068240710,SVPGHI,AOML,LAURA_BASSI,South
2020-02-03T09:00:00Z,1580720400,2020,9,0,34.375,34.375,-76.343,-158.444,-999.00,-0.73,-999.0,no,yes,no,300234068240710,SVPGHI,AOML,LAURA_BASSI,South
2020-02-03T10:00:02Z,1580724003,2020,10,0,34.4167,34.4167,-76.344,-158.465,-999.00,-0.72,-999.0,no,yes,no,300234068240710,SVPGHI,AOML,LAURA_BASSI,South
2020-02-03T10:59:57Z,1580727597,2020,11,0,34.4583,34.4583,-76.344,-158.478,-999.00,-0.72,-999.0,no,yes,no,300234068240710,SVPGHI,AOML,LAURA_BASSI,South
2020-02-03T12:00:00Z,1580731200,2020,12,0,34.5,34.5,-76.343,-158.495,-999.00,-0.68,-999.0,no,yes,no,300234068240710,SVPGHI,AOML,LAURA_BASSI,South
2020-02-03T13:00:02Z,1580734803,2020,13,0,34.5417,34.5417,-76.343,-158.51,-999.00,-0.7,-999.0,no,yes,no,300234068240710,SVPGHI,AOML,LAURA_BASSI,South
2020-02-03T13:59:57Z,1580738397,2020,14,0,34.5833,34.5833,-76.342,-158.527,-999.00,-0.71,-999.0,no,yes,no,300234068240710,SVPGHI,AOML,LAURA_BASSI,South
2020-02-03T15:00:00Z,1580742000,2020,15,0,34.625,34.625,-76.342,-158.543,-999.00,-0.72,-999.0,no,yes,no,300234068240710,SVPGHI,AOML,LAURA_BASSI,South
2020-02-03T16:00:02Z,1580745603,2020,16,0,34.6667,34.6667,-76.341,-158.553,-999.00,-0.7,-999.0,no,yes,no,300234068240710,SVPGHI,AOML,LAURA_BASSI,South
2020-02-03T16:59:57Z,1580749197,2020,17,0,34.7083,34.7083,-76.34,-158.571,-999.00,-0.68,-999.0,no,yes,no,300234068240710,SVPGHI,AOML,LAURA_BASSI,South
2020-02-03T18:00:00Z,1580752800,2020,18,0,34.75,34.75,-76.34,-158.591,-999.00,-0.66,-999.0,no,yes,no,300234068240710,SVPGHI,AOML,LAURA_BASSI,South
2020-02-03T19:00:02Z,1580756403,2020,19,0,34.7917,34.7917,-76.341,-158.615,-999.00,-0.65,-999.0,no,yes,no,300234068240710,SVPGHI,AOML,LAURA_BASSI,South
2020-02-03T19:59:57Z,1580759997,2020,20,0,34.8333,34.8333,-76.344,-158.645,-999.00,-0.62,-999.0,no,yes,no,300234068240710,SVPGHI,AOML,LAURA_BASSI,South
2020-02-03T21:00:00Z,1580763600,2020,21,0,34.875,34.875,-76.347,-158.667,-999.00,-0.61,-999.0,no,yes,no,300234068240710,SVPGHI,AOML,LAURA_BASSI,South
2020-02-03T22:00:02Z,1580767203,2020,22,0,34.9167,34.9167,-76.351,-158.687,-999.00,-0.59,-999.0,no,yes,no,300234068240710,SVPGHI,AOML,LAURA_BASSI,South
2020-02-03T22:59:57Z,1580770797,2020,23,0,34.9583,34.9583,-76.354,-158.709,-999.00,-0.58,-999.0,no,yes,no,300234068240710,SVPGHI,AOML,LAURA_BASSI,South
2020-02-04T00:00:00Z,1580774400,2020,0,0,35.0,35.0,-76.355,-158.731,-999.00,-0.53,-999.0,no,yes,no,300234068240710,SVPGHI,AOML,LAURA_BASSI,South
2020-02-04T01:00:02Z,1580778003,2020,1,0,35.0417,35.0417,-76.356,-158.753,-999.00,-0.5,-999.0,no,yes,no,300234068240710,SVPGHI,AOML,LAURA_BASSI,South
2020-02-04T01:59:57Z,1580781597,2020,2,0,35.0833,35.0833,-76.355,-158.77,-999.00,-0.53,-999.0,no,yes,no,300234068240710,SVPGHI,AOML,LAURA_BASSI,South
2020-02-04T03:00:00Z,1580785200,2020,3,0,35.125,35.125,-76.353,-158.797,-999.00,-0.52,-999.0,no,yes,no,300234068240710,SVPGHI,AOML,LAURA_BASSI,South
2020-02-04T04:00:02Z,1580788803,2020,4,0,35.1667,35.1667,-76.349,-158.825,-999.00,-0.52,-999.0,no,yes,no,300234068240710,SVPGHI,AOML,LAURA_BASSI,South
2020-02-04T04:59:57Z,1580792397,2020,5,0,35.2083,35.2083,-76.344,-158.855,-999.00,-0.52,-999.0,no,yes,no,300234068240710,SVPGHI,AOML,LAURA_BASSI,South
2020-02-04T06:00:00Z,1580796000,2020,6,0,35.25,35.25,-76.344,-158.888,-999.00,-0.53,-999.0,no,yes,no,300234068240710,SVPGHI,AOML,LAURA_BASSI,South
2020-02-04T07:00:02Z,1580799603,2020,7,0,35.2917,35.2917,-76.343,-158.913,-999.00,-0.52,-999.0,no,yes,no,300234068240710,SVPGHI,AOML,LAURA_BASSI,South
2020-02-04T07:59:57Z,1580803197,2020,8,0,35.3333,35.3333,-76.343,-158.931,-999.00,-0.57,-999.0,no,yes,no,300234068240710,SVPGHI,AOML,LAURA_BASSI,South
2020-02-04T09:00:00Z,1580806800,2020,9,0,35.375,35.375,-76.344,-158.946,-999.00,-0.62,-999.0,no,yes,no,300234068240710,SVPGHI,AOML,LAURA_BASSI,South
2020-02-04T10:00:02Z,1580810403,2020,10,0,35.4167,35.4167,-76.345,-158.961,-999.00,-0.64,-999.0,no,yes,no,300234068240710,SVPGHI,AOML,LAURA_BASSI,South
2020-02-04T10:59:57Z,1580813997,2020,11,0,35.4583,35.4583,-76.347,-158.974,-999.00,-0.64,-999.0,no,yes,no,300234068240710,SVPGHI,AOML,LAURA_BASSI,South
2020-02-04T12:00:00Z,1580817600,2020,12,0,35.5,35.5,-76.347,-158.993,-999.00,-0.64,-999.0,no,yes,no,300234068240710,SVPGHI,AOML,LAURA_BASSI,South
2020-02-04T13:00:02Z,1580821203,2020,13,0,35.5417,35.5417,-76.347,-159.013,-999.00,-0.68,-999.0,no,yes,no,300234068240710,SVPGHI,AOML,LAURA_BASSI,South
2020-02-04T13:59:57Z,1580824797,2020,14,0,35.5833,35.5833,-76.347,-159.042,-999.00,-0.69,-999.0,no,yes,no,300234068240710,SVPGHI,AOML,LAURA_BASSI,South
2020-02-04T15:00:00Z,1580828400,2020,15,0,35.625,35.625,-76.342,-159.071,-999.00,-0.68,-999.0,no,yes,no,300234068240710,SVPGHI,AOML,LAURA_BASSI,South
2020-02-04T16:00:02Z,1580832003,2020,16,0,35.6667,35.6667,-76.339,-159.105,-999.00,-0.68,-999.0,no,yes,no,300234068240710,SVPGHI,AOML,LAURA_BASSI,South
2020-02-04T16:59:57Z,1580835597,2020,17,0,35.7083,35.7083,-76.337,-159.14,-999.00,-0.68,-999.0,no,yes,no,300234068240710,SVPGHI,AOML,LAURA_BASSI,South
2020-02-04T18:00:00Z,1580839200,2020,18,0,35.75,35.75,-76.336,-159.171,-999.00,-0.67,-999.0,no,yes,no,300234068240710,SVPGHI,AOML,LAURA_BASSI,South
2020-02-04T19:00:02Z,1580842803,2020,19,0,35.7917,35.7917,-76.334,-159.2,-999.00,-0.67,-999.0,no,yes,no,300234068240710,SVPGHI,AOML,LAURA_BASSI,South
2020-02-04T19:59:57Z,1580846397,2020,20,0,35.8333,35.8333,-76.332,-159.224,-999.00,-0.67,-999.0,no,yes,no,300234068240710,SVPGHI,AOML,LAURA_BASSI,South
2020-02-04T21:00:00Z,1580850000,2020,21,0,35.875,35.875,-76.331,-159.245,-999.00,-0.66,-999.0,no,yes,no,300234068240710,SVPGHI,AOML,LAURA_BASSI,South
2020-02-04T22:00:02Z,1580853603,2020,22,0,35.9167,35.9167,-76.33,-159.267,-999.00,-0.63,-999.0,no,yes,no,300234068240710,SVPGHI,AOML,LAURA_BASSI,South
2020-02-04T22:59:57Z,1580857197,2020,23,0,35.9583,35.9583,-76.329,-159.28,-999.00,-0.63,-999.0,no,yes,no,300234068240710,SVPGHI,AOML,LAURA_BASSI,South
2020-02-05T00:00:00Z,1580860800,2020,0,0,36.0,36.0,-76.328,-159.294,-999.00,-0.61,-999.0,no,yes,no,300234068240710,SVPGHI,AOML,LAURA_BASSI,South
2020-02-05T01:02:03Z,1580864524,2020,1,2,36.0431,36.0431,-76.329,-159.308,-999.00,-0.59,-999.0,no,yes,no,300234068240710,SVPGHI,AOML,LAURA_BASSI,South
2020-02-05T01:59:57Z,1580867997,2020,2,0,36.0833,36.0833,-76.329,-159.317,-999.00,-0.56,-999.0,no,yes,no,300234068240710,SVPGHI,AOML,LAURA_BASSI,South
2020-02-05T03:00:00Z,1580871600,2020,3,0,36.125,36.125,-76.329,-159.326,-999.00,-0.52,-999.0,no,yes,no,300234068240710,SVPGHI,AOML,LAURA_BASSI,South
2020-02-05T04:00:02Z,1580875203,2020,4,0,36.1667,36.1667,-76.33,-159.338,-999.00,-0.5,-999.0,no,yes,no,300234068240710,SVPGHI,AOML,LAURA_BASSI,South
2020-02-05T04:59:57Z,1580878797,2020,5,0,36.2083,36.2083,-76.33,-159.346,-999.00,-0.47,-999.0,no,yes,no,300234068240710,SVPGHI,AOML,LAURA_BASSI,South
2020-02-05T06:00:00Z,1580882400,2020,6,0,36.25,36.25,-76.333,-159.354,-999.00,-0.45,-999.0,no,yes,no,300234068240710,SVPGHI,AOML,LAURA_BASSI,South
2020-02-05T07:00:02Z,1580886003,2020,7,0,36.2917,36.2917,-76.335,-159.362,-999.00,-0.44,-999.0,no,yes,no,300234068240710,SVPGHI,AOML,LAURA_BASSI,South
2020-02-05T07:59:57Z,1580889597,2020,8,0,36.3333,36.3333,-76.336,-159.377,-999.00,-0.45,-999.0,no,yes,no,300234068240710,SVPGHI,AOML,LAURA_BASSI,South
2020-02-05T09:01:00Z,1580893260,2020,9,1,36.3757,36.3757,-76.338,-159.391,-999.00,-0.44,-999.0,no,yes,no,300234068240710,SVPGHI,AOML,LAURA_BASSI,South
2020-02-05T10:01:03Z,1580896863,2020,10,1,36.4174,36.4174,-76.339,-159.418,-999.00,-0.43,-999.0,no,yes,no,300234068240710,SVPGHI,AOML,LAURA_BASSI,South
2020-02-05T10:59:57Z,1580900397,2020,11,0,36.4583,36.4583,-76.341,-159.444,-999.00,-0.39,-999.0,no,yes,no,300234068240710,SVPGHI,AOML,LAURA_BASSI,South
2020-02-05T12:00:00Z,1580904000,2020,12,0,36.5,36.5,-76.344,-159.469,-999.00,-0.37,-999.0,no,yes,no,300234068240710,SVPGHI,AOML,LAURA_BASSI,South
2020-02-05T13:02:03Z,1580907724,2020,13,2,36.5431,36.5431,-76.347,-159.488,-999.00,-0.38,-999.0,no,yes,no,300234068240710,SVPGHI,AOML,LAURA_BASSI,South
2020-02-05T13:59:57Z,1580911197,2020,14,0,36.5833,36.5833,-76.349,-159.501,-999.00,-0.39,-999.0,no,yes,no,300234068240710,SVPGHI,AOML,LAURA_BASSI,South
2020-02-05T15:00:00Z,1580914800,2020,15,0,36.625,36.625,-76.35,-159.519,-999.00,-0.39,-999.0,no,yes,no,300234068240710,SVPGHI,AOML,LAURA_BASSI,South
2020-02-05T16:01:03Z,1580918463,2020,16,1,36.6674,36.6674,-76.352,-159.538,-999.00,-0.4,-999.0,no,yes,no,300234068240710,SVPGHI,AOML,LAURA_BASSI,South
2020-02-05T16:59:57Z,1580921997,2020,17,0,36.7083,36.7083,-76.352,-159.562,-999.00,-0.39,-999.0,no,yes,no,300234068240710,SVPGHI,AOML,LAURA_BASSI,South
2020-02-05T18:00:00Z,1580925600,2020,18,0,36.75,36.75,-76.353,-159.583,-999.00,-0.38,-999.0,no,yes,no,300234068240710,SVPGHI,AOML,LAURA_BASSI,South
2020-02-05T19:00:02Z,1580929203,2020,19,0,36.7917,36.7917,-76.354,-159.617,-999.00,-0.37,-999.0,no,yes,no,300234068240710,SVPGHI,AOML,LAURA_BASSI,South
2020-02-05T19:59:57Z,1580932797,2020,20,0,36.8333,36.8333,-76.356,-159.65,-999.00,-0.34,-999.0,no,yes,no,300234068240710,SVPGHI,AOML,LAURA_BASSI,South
2020-02-05T21:00:00Z,1580936400,2020,21,0,36.875,36.875,-76.36,-159.683,-999.00,-0.24,-999.0,no,yes,no,300234068240710,SVPGHI,AOML,LAURA_BASSI,South
2020-02-05T22:00:02Z,1580940003,2020,22,0,36.9167,36.9167,-76.365,-159.703,-999.00,-0.12,-999.0,no,yes,no,300234068240710,SVPGHI,AOML,LAURA_BASSI,South
2020-02-05T22:59:57Z,1580943597,2020,23,0,36.9583,36.9583,-76.37,-159.719,-999.00,-0.15,-999.0,no,yes,no,300234068240710,SVPGHI,AOML,LAURA_BASSI,South
2020-02-06T00:00:00Z,1580947200,2020,0,0,37.0,37.0,-76.372,-159.735,-999.00,0.11,-999.0,no,yes,no,300234068240710,SVPGHI,AOML,LAURA_BASSI,South
2020-02-06T01:00:02Z,1580950803,2020,1,0,37.0417,37.0417,-76.373,-159.752,-999.00,0.2,-999.0,no,yes,no,300234068240710,SVPGHI,AOML,LAURA_BASSI,South
2020-02-06T01:59:57Z,1580954397,2020,2,0,37.0833,37.0833,-76.373,-159.77,-999.00,0.29,-999.0,no,yes,no,300234068240710,SVPGHI,AOML,LAURA_BASSI,South
2020-02-06T03:00:00Z,1580958000,2020,3,0,37.125,37.125,-76.373,-159.79,-999.00,0.0,-999.0,no,yes,no,300234068240710,SVPGHI,AOML,LAURA_BASSI,South
2020-02-06T04:00:02Z,1580961603,2020,4,0,37.1667,37.1667,-76.373,-159.811,-999.00,-0.14,-999.0,no,yes,no,300234068240710,SVPGHI,AOML,LAURA_BASSI,South
2020-02-06T05:00:57Z,1580965258,2020,5,1,37.209,37.209,-76.374,-159.837,-999.00,-0.17,-999.0,no,yes,no,300234068240710,SVPGHI,AOML,LAURA_BASSI,South
2020-02-06T06:00:00Z,1580968800,2020,6,0,37.25,37.25,-76.375,-159.859,-999.00,-0.21,-999.0,no,yes,no,300234068240710,SVPGHI,AOML,LAURA_BASSI,South
2020-02-06T07:00:02Z,1580972403,2020,7,0,37.2917,37.2917,-76.377,-159.88,-999.00,-0.21,-999.0,no,yes,no,300234068240710,SVPGHI,AOML,LAURA_BASSI,South
2020-02-06T07:59:57Z,1580975997,2020,8,0,37.3333,37.3333,-76.378,-159.892,-999.00,-0.15,-999.0,no,yes,no,300234068240710,SVPGHI,AOML,LAURA_BASSI,South
2020-02-06T09:00:00Z,1580979600,2020,9,0,37.375,37.375,-76.379,-159.911,-999.00,-0.16,-999.0,no,yes,no,300234068240710,SVPGHI,AOML,LAURA_BASSI,South
2020-02-06T10:00:02Z,1580983203,2020,10,0,37.4167,37.4167,-76.379,-159.931,-999.00,-0.2,-999.0,no,yes,no,300234068240710,SVPGHI,AOML,LAURA_BASSI,South
2020-02-06T10:59:57Z,1580986797,2020,11,0,37.4583,37.4583,-76.379,-159.949,-999.00,-0.31,-999.0,no,yes,no,300234068240710,SVPGHI,AOML,LAURA_BASSI,South
2020-02-06T12:00:00Z,1580990400,2020,12,0,37.5,37.5,-76.38,-159.972,-999.00,-0.3,-999.0,no,yes,no,300234068240710,SVPGHI,AOML,LAURA_BASSI,South
2020-02-06T13:00:02Z,1580994003,2020,13,0,37.5417,37.5417,-76.38,-159.997,-999.00,-0.36,-999.0,no,yes,no,300234068240710,SVPGHI,AOML,LAURA_BASSI,South
2020-02-06T13:59:57Z,1580997597,2020,14,0,37.5833,37.5833,-76.381,-160.019,-999.00,-0.42,-999.0,no,yes,no,300234068240710,SVPGHI,AOML,LAURA_BASSI,South
2020-02-06T15:00:00Z,1581001200,2020,15,0,37.625,37.625,-76.382,-160.039,-999.00,-0.4,-999.0,no,yes,no,300234068240710,SVPGHI,AOML,LAURA_BASSI,South
2020-02-06T16:00:02Z,1581004803,2020,16,0,37.6667,37.6667,-76.384,-160.062,-999.00,-0.39,-999.0,no,yes,no,300234068240710,SVPGHI,AOML,LAURA_BASSI,South
2020-02-06T16:59:57Z,1581008397,2020,17,0,37.7083,37.7083,-76.386,-160.079,-999.00,-0.39,-999.0,no,yes,no,300234068240710,SVPGHI,AOML,LAURA_BASSI,South
2020-02-06T18:00:00Z,1581012000,2020,18,0,37.75,37.75,-76.388,-160.097,-999.00,-0.38,-999.0,no,yes,no,300234068240710,SVPGHI,AOML,LAURA_BASSI,South
2020-02-06T19:00:02Z,1581015603,2020,19,0,37.7917,37.7917,-76.388,-160.117,-999.00,-0.39,-999.0,no,yes,no,300234068240710,SVPGHI,AOML,LAURA_BASSI,South
2020-02-06T19:59:57Z,1581019197,2020,20,0,37.8333,37.8333,-76.39,-160.132,-999.00,-0.38,-999.0,no,yes,no,300234068240710,SVPGHI,AOML,LAURA_BASSI,South
2020-02-06T21:00:00Z,1581022800,2020,21,0,37.875,37.875,-76.39,-160.144,-999.00,-0.35,-999.0,no,yes,no,300234068240710,SVPGHI,AOML,LAURA_BASSI,South
2020-02-06T22:00:02Z,1581026403,2020,22,0,37.9167,37.9167,-76.389,-160.158,-999.00,-0.32,-999.0,no,yes,no,300234068240710,SVPGHI,AOML,LAURA_BASSI,South
2020-02-06T22:59:57Z,1581029997,2020,23,0,37.9583,37.9583,-76.389,-160.177,-999.00,-0.31,-999.0,no,yes,no,300234068240710,SVPGHI,AOML,LAURA_BASSI,South
2020-02-07T00:00:00Z,1581033600,2020,0,0,38.0,38.0,-76.39,-160.201,-999.00,-0.3,-999.0,no,yes,no,300234068240710,SVPGHI,AOML,LAURA_BASSI,South
2020-02-07T01:00:02Z,1581037203,2020,1,0,38.0417,38.0417,-76.389,-160.219,-999.00,-0.28,-999.0,no,yes,no,300234068240710,SVPGHI,AOML,LAURA_BASSI,South
2020-02-07T01:59:57Z,1581040797,2020,2,0,38.0833,38.0833,-76.391,-160.242,-999.00,-0.27,-999.0,no,yes,no,300234068240710,SVPGHI,AOML,LAURA_BASSI,South
2020-02-07T03:00:00Z,1581044400,2020,3,0,38.125,38.125,-76.393,-160.266,-999.00,-0.28,-999.0,no,yes,no,300234068240710,SVPGHI,AOML,LAURA_BASSI,South
2020-02-07T04:00:02Z,1581048003,2020,4,0,38.1667,38.1667,-76.395,-160.283,-999.00,-0.28,-999.0,no,yes,no,300234068240710,SVPGHI,AOML,LAURA_BASSI,South
2020-02-07T04:59:57Z,1581051597,2020,5,0,38.2083,38.2083,-76.398,-160.29,-999.00,-0.29,-999.0,no,yes,no,300234068240710,SVPGHI,AOML,LAURA_BASSI,South
2020-02-07T06:00:00Z,1581055200,2020,6,0,38.25,38.25,-76.4,-160.293,-999.00,-0.31,-999.0,no,yes,no,300234068240710,SVPGHI,AOML,LAURA_BASSI,South
2020-02-07T07:00:02Z,1581058803,2020,7,0,38.2917,38.2917,-76.403,-160.294,-999.00,-0.31,-999.0,no,yes,no,300234068240710,SVPGHI,AOML,LAURA_BASSI,South
2020-02-07T07:59:57Z,1581062397,2020,8,0,38.3333,38.3333,-76.405,-160.289,-999.00,-0.32,-999.0,no,yes,no,300234068240710,SVPGHI,AOML,LAURA_BASSI,South
2020-02-07T09:00:00Z,1581066000,2020,9,0,38.375,38.375,-76.405,-160.296,-999.00,-0.31,-999.0,no,yes,no,300234068240710,SVPGHI,AOML,LAURA_BASSI,South
2020-02-07T10:00:02Z,1581069603,2020,10,0,38.4167,38.4167,-76.404,-160.3,-999.00,-0.32,-999.0,no,yes,no,300234068240710,SVPGHI,AOML,LAURA_BASSI,South
2020-02-07T10:59:57Z,1581073197,2020,11,0,38.4583,38.4583,-76.403,-160.313,-999.00,-0.31,-999.0,no,yes,no,300234068240710,SVPGHI,AOML,LAURA_BASSI,South
2020-02-07T12:00:00Z,1581076800,2020,12,0,38.5,38.5,-76.405,-160.328,-999.00,-0.33,-999.0,no,yes,no,300234068240710,SVPGHI,AOML,LAURA_BASSI,South
2020-02-07T13:00:02Z,1581080403,2020,13,0,38.5417,38.5417,-76.405,-160.346,-999.00,-0.33,-999.0,no,yes,no,300234068240710,SVPGHI,AOML,LAURA_BASSI,South
2020-02-07T13:59:57Z,1581083997,2020,14,0,38.5833,38.5833,-76.407,-160.35,-999.00,-0.33,-999.0,no,yes,no,300234068240710,SVPGHI,AOML,LAURA_BASSI,South
2020-02-07T15:00:00Z,1581087600,2020,15,0,38.625,38.625,-76.409,-160.359,-999.00,-0.33,-999.0,no,yes,no,300234068240710,SVPGHI,AOML,LAURA_BASSI,South
2020-02-07T16:00:02Z,1581091203,2020,16,0,38.6667,38.6667,-76.411,-160.365,-999.00,-0.33,-999.0,no,yes,no,300234068240710,SVPGHI,AOML,LAURA_BASSI,South
2020-02-07T16:59:57Z,1581094797,2020,17,0,38.7083,38.7083,-76.412,-160.375,-999.00,-0.32,-999.0,no,yes,no,300234068240710,SVPGHI,AOML,LAURA_BASSI,South
2020-02-07T18:00:00Z,1581098400,2020,18,0,38.75,38.75,-76.415,-160.384,-999.00,-0.31,-999.0,no,yes,no,300234068240710,SVPGHI,AOML,LAURA_BASSI,South
2020-02-07T19:00:02Z,1581102003,2020,19,0,38.7917,38.7917,-76.417,-160.39,-999.00,-0.32,-999.0,no,yes,no,300234068240710,SVPGHI,AOML,LAURA_BASSI,South
2020-02-07T19:59:57Z,1581105597,2020,20,0,38.8333,38.8333,-76.419,-160.39,-999.00,-0.31,-999.0,no,yes,no,300234068240710,SVPGHI,AOML,LAURA_BASSI,South
2020-02-07T21:00:00Z,1581109200,2020,21,0,38.875,38.875,-76.421,-160.395,-999.00,-0.3,-999.0,no,yes,no,300234068240710,SVPGHI,AOML,LAURA_BASSI,South
2020-02-07T22:00:02Z,1581112803,2020,22,0,38.9167,38.9167,-76.422,-160.401,-999.00,-0.28,-999.0,no,yes,no,300234068240710,SVPGHI,AOML,LAURA_BASSI,South
2020-02-07T22:59:57Z,1581116397,2020,23,0,38.9583,38.9583,-76.424,-160.411,-999.00,-0.27,-999.0,no,yes,no,300234068240710,SVPGHI,AOML,LAURA_BASSI,South
2020-02-08T00:00:00Z,1581120000,2020,0,0,39.0,39.0,-76.428,-160.422,-999.00,-0.27,-999.0,no,yes,no,300234068240710,SVPGHI,AOML,LAURA_BASSI,South
2020-02-08T01:00:02Z,1581123603,2020,1,0,39.0417,39.0417,-76.432,-160.427,-999.00,-0.26,-999.0,no,yes,no,300234068240710,SVPGHI,AOML,LAURA_BASSI,South
2020-02-08T01:59:57Z,1581127197,2020,2,0,39.0833,39.0833,-76.435,-160.435,-999.00,-0.22,-999.0,no,yes,no,300234068240710,SVPGHI,AOML,LAURA_BASSI,South
2020-02-08T03:00:00Z,1581130800,2020,3,0,39.125,39.125,-76.44,-160.435,-999.00,-0.17,-999.0,no,yes,no,300234068240710,SVPGHI,AOML,LAURA_BASSI,South
2020-02-08T04:00:02Z,1581134403,2020,4,0,39.1667,39.1667,-76.444,-160.43,-999.00,-0.16,-999.0,no,yes,no,300234068240710,SVPGHI,AOML,LAURA_BASSI,South
2020-02-08T04:59:57Z,1581137997,2020,5,0,39.2083,39.2083,-76.446,-160.421,-999.00,-0.16,-999.0,no,yes,no,300234068240710,SVPGHI,AOML,LAURA_BASSI,South
2020-02-08T06:00:00Z,1581141600,2020,6,0,39.25,39.25,-76.448,-160.41,-999.00,-0.17,-999.0,no,yes,no,300234068240710,SVPGHI,AOML,LAURA_BASSI,South
2020-02-08T07:00:02Z,1581145203,2020,7,0,39.2917,39.2917,-76.45,-160.402,-999.00,-0.17,-999.0,no,yes,no,300234068240710,SVPGHI,AOML,LAURA_BASSI,South
2020-02-08T07:59:57Z,1581148797,2020,8,0,39.3333,39.3333,-76.451,-160.395,-999.00,-0.19,-999.0,no,yes,no,300234068240710,SVPGHI,AOML,LAURA_BASSI,South
2020-02-08T09:00:00Z,1581152400,2020,9,0,39.375,39.375,-76.451,-160.389,-999.00,-0.23,-999.0,no,yes,no,300234068240710,SVPGHI,AOML,LAURA_BASSI,South
2020-02-08T10:00:02Z,1581156003,2020,10,0,39.4167,39.4167,-76.452,-160.381,-999.00,-0.28,-999.0,no,yes,no,300234068240710,SVPGHI,AOML,LAURA_BASSI,South
2020-02-08T10:59:57Z,1581159597,2020,11,0,39.4583,39.4583,-76.45,-160.384,-999.00,-0.28,-999.0,no,yes,no,300234068240710,SVPGHI,AOML,LAURA_BASSI,South
2020-02-08T12:00:00Z,1581163200,2020,12,0,39.5,39.5,-76.45,-160.384,-999.00,-0.29,-999.0,no,yes,no,300234068240710,SVPGHI,AOML,LAURA_BASSI,South
2020-02-08T13:00:02Z,1581166803,2020,13,0,39.5417,39.5417,-76.45,-160.386,-999.00,-0.29,-999.0,no,yes,no,300234068240710,SVPGHI,AOML,LAURA_BASSI,South
2020-02-08T13:59:57Z,1581170397,2020,14,0,39.5833,39.5833,-76.452,-160.389,-999.00,-0.33,-999.0,no,yes,no,300234068240710,SVPGHI,AOML,LAURA_BASSI,South
2020-02-08T15:00:00Z,1581174000,2020,15,0,39.625,39.625,-76.453,-160.386,-999.00,-0.32,-999.0,no,yes,no,300234068240710,SVPGHI,AOML,LAURA_BASSI,South
2020-02-08T16:00:02Z,1581177603,2020,16,0,39.6667,39.6667,-76.454,-160.383,-999.00,-0.3,-999.0,no,yes,no,300234068240710,SVPGHI,AOML,LAURA_BASSI,South
2020-02-08T16:58:56Z,1581181137,2020,16,59,39.7076,39.7076,-76.656,-159.679,-999.00,-0.3,-999.0,no,yes,no,300234068240710,SVPGHI,AOML,LAURA_BASSI,South
2020-02-08T18:00:00Z,1581184800,2020,18,0,39.75,39.75,-76.457,-160.379,-999.00,-0.26,-999.0,no,yes,no,300234068240710,SVPGHI,AOML,LAURA_BASSI,South
2020-02-08T19:00:02Z,1581188403,2020,19,0,39.7917,39.7917,-76.459,-160.375,-999.00,-0.23,-999.0,no,yes,no,300234068240710,SVPGHI,AOML,LAURA_BASSI,South
2020-02-08T20:00:57Z,1581192058,2020,20,1,39.834,39.834,-76.461,-160.363,-999.00,-0.23,-999.0,no,yes,no,300234068240710,SVPGHI,AOML,LAURA_BASSI,South
2020-02-08T21:00:00Z,1581195600,2020,21,0,39.875,39.875,-76.462,-160.353,-999.00,-0.24,-999.0,no,yes,no,300234068240710,SVPGHI,AOML,LAURA_BASSI,South
2020-02-08T22:00:02Z,1581199203,2020,22,0,39.9167,39.9167,-76.462,-160.344,-999.00,-0.25,-999.0,no,yes,no,300234068240710,SVPGHI,AOML,LAURA_BASSI,South
2020-02-08T23:00:57Z,1581202858,2020,23,1,39.959,39.959,-76.461,-160.342,-999.00,-0.21,-999.0,no,yes,no,300234068240710,SVPGHI,AOML,LAURA_BASSI,South
2020-02-09T00:00:00Z,1581206400,2020,0,0,40.0,40.0,-76.46,-160.343,-999.00,-0.22,-999.0,no,yes,no,300234068240710,SVPGHI,AOML,LAURA_BASSI,South
2020-02-09T01:00:02Z,1581210003,2020,1,0,40.0417,40.0417,-76.459,-160.346,-999.00,-0.17,-999.0,no,yes,no,300234068240710,SVPGHI,AOML,LAURA_BASSI,South
2020-02-09T01:59:57Z,1581213597,2020,2,0,40.0833,40.0833,-76.459,-160.345,-999.00,-0.16,-999.0,no,yes,no,300234068240710,SVPGHI,AOML,LAURA_BASSI,South
2020-02-09T03:00:00Z,1581217200,2020,3,0,40.125,40.125,-76.46,-160.349,-999.00,-0.17,-999.0,no,yes,no,300234068240710,SVPGHI,AOML,LAURA_BASSI,South
2020-02-09T04:00:02Z,1581220803,2020,4,0,40.1667,40.1667,-76.461,-160.347,-999.00,-0.18,-999.0,no,yes,no,300234068240710,SVPGHI,AOML,LAURA_BASSI,South
2020-02-09T04:59:57Z,1581224397,2020,5,0,40.2083,40.2083,-76.464,-160.343,-999.00,-0.19,-999.0,no,yes,no,300234068240710,SVPGHI,AOML,LAURA_BASSI,South
2020-02-09T06:00:00Z,1581228000,2020,6,0,40.25,40.25,-76.467,-160.33,-999.00,-0.2,-999.0,no,yes,no,300234068240710,SVPGHI,AOML,LAURA_BASSI,South
2020-02-09T07:00:02Z,1581231603,2020,7,0,40.2917,40.2917,-76.469,-160.32,-999.00,-0.2,-999.0,no,yes,no,300234068240710,SVPGHI,AOML,LAURA_BASSI,South
2020-02-09T07:59:57Z,1581235197,2020,8,0,40.3333,40.3333,-76.471,-160.305,-999.00,-0.21,-999.0,no,yes,no,300234068240710,SVPGHI,AOML,LAURA_BASSI,South
2020-02-09T09:00:00Z,1581238800,2020,9,0,40.375,40.375,-76.471,-160.287,-999.00,-0.21,-999.0,no,yes,no,300234068240710,SVPGHI,AOML,LAURA_BASSI,South
2020-02-09T10:00:02Z,1581242403,2020,10,0,40.4167,40.4167,-76.471,-160.271,-999.00,-0.21,-999.0,no,yes,no,300234068240710,SVPGHI,AOML,LAURA_BASSI,South
2020-02-09T10:59:57Z,1581245997,2020,11,0,40.4583,40.4583,-76.471,-160.257,-999.00,-0.21,-999.0,no,yes,no,300234068240710,SVPGHI,AOML,LAURA_BASSI,South
2020-02-09T12:00:00Z,1581249600,2020,12,0,40.5,40.5,-76.469,-160.249,-999.00,-0.22,-999.0,no,yes,no,300234068240710,SVPGHI,AOML,LAURA_BASSI,South
2020-02-09T13:00:02Z,1581253203,2020,13,0,40.5417,40.5417,-76.467,-160.249,-999.00,-0.22,-999.0,no,yes,no,300234068240710,SVPGHI,AOML,LAURA_BASSI,South
2020-02-09T14:00:57Z,1581256858,2020,14,1,40.584,40.584,-76.465,-160.252,-999.00,-0.22,-999.0,no,yes,no,300234068240710,SVPGHI,AOML,LAURA_BASSI,South